Hourly Data Report for October 10, 2014

All times are specified in Local Standard Time (LST). Add 1 hour to adjust for Daylight Saving Time where and when it is observed.

GJOA HAVEN A
NUNAVUT

68°38'08.000" N
95°51'01.000" W
46.90 m
2302337
71597
YHK

Download Data

Hourly Data (October 2014)
Hourly Data Report for October 10, 2014
Temp Definition
°C
Dew Point Temp Definition
°C
Rel Hum Definition
%
Wind Dir Definition
10's deg

Wind Spd Definition
km/h
Visibility Definition
km
Stn Press Definition
kPa
Hmdx Definition


Wind Chill Definition


Weather Definition


TIME
00:00 Legend Double Dagger -4.0 -4.3 98 35 22 16.1 101.52   -11 LegendNANA
01:00 Legend Double Dagger -4.9 -5.2 98 34 28 14.5 101.46   -13 LegendNANA
02:00 Legend Double Dagger -5.9 -6.2 98 35 28 11.3 101.41   -14 LegendNANA
03:00 Legend Double Dagger -7.0 -7.4 97 35 26 16.1 101.36   -15 LegendNANA
04:00 Legend Double Dagger -7.9 -8.4 96 36 24 16.1 101.28   -16 LegendNANA
05:00 Legend Double Dagger -7.8 -8.2 97 35 22 16.1 101.21   -15 LegendNANA
06:00 Legend Double Dagger -6.7 -7.1 97 36 21 16.1 101.19   -14 LegendNANA
07:00 Legend Double Dagger -6.9 -7.4 97 35 22 16.1 101.10   -14 LegendNANA
08:00 Legend Double Dagger -7.0 -7.4 97 35 22 14.5 101.03   -14 LegendNANA
09:00 Legend Double Dagger -7.0 -7.4 97 36 15 16.1 100.94   -13 LegendNANA
10:00 Legend Double Dagger -6.3 -6.7 97 36 22 16.1 100.88   -14 LegendNANA
11:00 Legend Double Dagger -6.1 -6.5 97 36 22 16.1 100.81   -13 LegendNANA
12:00 Legend Double Dagger -6.4 -7.1 95 36 18 16.1 100.76   -13 LegendNANA
13:00 Legend Double Dagger -6.7 -7.5 94 35 21 16.1 100.69   -14 LegendNANA
14:00 Legend Double Dagger -7.2 -7.9 95 36 24 14.5 100.62   -15 LegendNANA
15:00 Legend Double Dagger -6.3 -7.5 91 2 28 16.1 100.56   -14 LegendNANA
16:00 Legend Double Dagger -6.3 -7.1 94 35 18 16.1 100.55   -13 LegendNANA
17:00 Legend Double Dagger -6.2 -6.3 99 36 22 4.8 100.49   -13 Fog
18:00 Legend Double Dagger -6.1 -6.7 96 35 24 16.1 100.43   -14 LegendNANA
19:00 Legend Double Dagger -6.6 -7.3 95 1 30 16.1 100.36   -15 LegendNANA
20:00 Legend Double Dagger -6.8 -7.6 94 1 30 16.1 100.29   -15 LegendNANA
21:00 Legend Double Dagger -7.1 -8.2 92 1 24 16.1 100.26   -15 LegendNANA
22:00 Legend Double Dagger -7.3 -8.1 94 1 18 16.1 100.20   -14 LegendNANA
23:00 Legend Double Dagger -8.8 -8.9 99 34 22 16.1 100.18   -17 LegendNANA

Notes on Data Quality.

Legend

  • E = Estimated
  • M = Missing
  • NA = Not Available
  • ‡ = Partner data that is not subject to review by the National Climate Archives
Date modified: